17-03-2022, 00:00:04,    247,    0.5,    2.7,   0.00,   0.00, 1019.9,   90.2, -999.0
17-03-2022, 00:00:14,    247,    0.5,    2.6,   0.00,   0.00, 1019.9,   90.2, -999.0
17-03-2022, 00:00:24,    293,    1.3,    2.6,   0.00,   0.00, 1019.9,   90.3, -999.0
17-03-2022, 00:00:34,    293,    1.8,    2.7,   0.00,   0.00, 1020.0,   90.3, -999.0
17-03-2022, 00:00:44,    293,    1.0,    2.7,   0.00,   0.00, 1019.9,   90.2, -999.0
17-03-2022, 00:00:54,    319,    0.7,    2.7,   0.00,   0.00, 1019.9,   90.2, -999.0
17-03-2022, 00:01:04,    308,    1.1,    2.6,   0.00,   0.00, 1019.9,   90.4, -999.0
17-03-2022, 00:01:14,    308,    0.0,    2.6,   0.00,   0.00, 1019.8,   90.0, -999.0
17-03-2022, 00:01:24,    308,    0.0,    2.6,   0.00,   0.00, 1019.8,   90.0, -999.0
17-03-2022, 00:01:33,    308,    0.0,    2.6,   0.00,   0.00, 1019.8,   90.0, -999.0
17-03-2022, 00:01:44,    309,    0.2,    2.6,   0.00,   0.00, 1019.9,   90.2, -999.0
17-03-2022, 00:01:53,    313,    1.4,    2.6,   0.00,   0.00, 1019.9,   90.3, -999.0
17-03-2022, 00:02:03,    302,    2.7,    2.6,   0.00,   0.00, 1019.9,   90.2, -999.0
17-03-2022, 00:02:13,    320,    2.7,    2.7,   0.00,   0.00, 1019.9,   90.2, -999.0
17-03-2022, 00:02:23,    286,    1.5,    2.7,   0.00,   0.00, 1019.9,   90.1, -999.0
17-03-2022, 00:02:33,    286,    0.6,    2.6,   0.00,   0.00, 1019.9,   90.0, -999.0
17-03-2022, 00:02:43,    285,    0.1,    2.7,   0.00,   0.00, 1019.8,   89.8, -999.0
17-03-2022, 00:02:53,    286,    0.0,    2.6,   0.00,   0.00, 1019.8,   89.9, -999.0
17-03-2022, 00:03:03,    285,    0.3,    2.7,   0.00,   0.00, 1019.9,   89.9, -999.0
17-03-2022, 00:03:13,    303,    0.7,    2.7,   0.00,   0.00, 1019.9,   89.9, -999.0
17-03-2022, 00:03:23,    302,    1.1,    2.7,   0.00,   0.00, 1019.9,   90.1, -999.0
17-03-2022, 00:03:33,    285,    0.7,    2.7,   0.00,   0.00, 1019.9,   90.1, -999.0
17-03-2022, 00:03:43,    284,    0.8,    2.7,   0.00,   0.00, 1019.9,   90.0, -999.0
17-03-2022, 00:03:53,    275,    0.6,    2.7,   0.00,   0.00, 1019.9,   90.0, -999.0
17-03-2022, 00:04:03,    275,    0.1,    2.7,   0.00,   0.00, 1019.9,   89.9, -999.0
17-03-2022, 00:04:13,    275,    0.0,    2.6,   0.00,   0.00, 1019.8,   89.7, -999.0
17-03-2022, 00:04:23,    275,    0.5,    2.7,   0.00,   0.00, 1019.9,   90.0, -999.0
17-03-2022, 00:04:33,    275,    0.2,    2.6,   0.00,   0.00, 1019.9,   89.9, -999.0
17-03-2022, 00:04:42,    275,    0.2,    2.6,   0.00,   0.00, 1019.9,   89.8, -999.0
17-03-2022, 00:04:53,    295,    0.8,    2.6,   0.00,   0.00, 1019.9,   89.8, -999.0
17-03-2022, 00:05:02,    310,    1.8,    2.7,   0.00,   0.00, 1020.0,   89.9, -999.0
17-03-2022, 00:05:12,    326,    0.6,    2.7,   0.00,   0.00, 1019.9,   89.8, -999.0
17-03-2022, 00:05:22,    267,    2.2,    2.7,   0.00,   0.00, 1020.0,   89.8, -999.0
17-03-2022, 00:05:32,    276,    1.5,    2.7,   0.00,   0.00, 1019.9,   89.8, -999.0
17-03-2022, 00:05:42,    276,    0.8,    2.7,   0.00,   0.00, 1020.0,   89.8, -999.0
17-03-2022, 00:05:52,    287,    1.5,    2.6,   0.00,   0.00, 1019.9,   89.8, -999.0
17-03-2022, 00:06:02,    276,    1.3,    2.6,   0.00,   0.00, 1019.9,   89.6, -999.0
17-03-2022, 00:06:12,    276,    0.3,    2.6,   0.00,   0.00, 1019.9,   89.5, -999.0
17-03-2022, 00:06:22,    291,    1.6,    2.6,   0.00,   0.00, 1019.9,   89.7, -999.0
17-03-2022, 00:06:32,    313,    1.1,    2.6,   0.00,   0.00, 1019.9,   89.7, -999.0
17-03-2022, 00:06:42,    289,    1.3,    2.7,   0.00,   0.00, 1019.9,   89.7, -999.0
17-03-2022, 00:06:52,    281,    0.6,    2.7,   0.00,   0.00, 1019.9,   89.6, -999.0
17-03-2022, 00:07:02,    289,    0.9,    2.6,   0.00,   0.00, 1019.9,   89.6, -999.0
17-03-2022, 00:07:12,    251,    0.6,    2.5,   0.00,   0.00, 1019.9,   89.6, -999.0
17-03-2022, 00:07:22,    250,    0.0,    2.5,   0.00,   0.00, 1019.8,   89.3, -999.0
17-03-2022, 00:07:32,    250,    0.0,    2.6,   0.00,   0.00, 1019.9,   89.4, -999.0
17-03-2022, 00:07:42,    251,    0.0,    2.5,   0.00,   0.00, 1019.8,   89.1, -999.0
17-03-2022, 00:07:52,    251,    0.0,    2.5,   0.00,   0.00, 1019.8,   89.2, -999.0
17-03-2022, 00:08:02,    278,    0.5,    2.6,   0.00,   0.00, 1019.9,   89.3, -999.0
17-03-2022, 00:08:11,    279,    1.1,    2.7,   0.00,   0.00, 1019.9,   89.6, -999.0
17-03-2022, 00:08:21,    297,    2.5,    2.6,   0.00,   0.00, 1019.9,   89.6, -999.0
17-03-2022, 00:08:32,    301,    2.9,    2.6,   0.00,   0.00, 1020.0,   89.5, -999.0
17-03-2022, 00:08:41,    303,    1.7,    2.7,   0.00,   0.00, 1019.9,   89.4, -999.0
17-03-2022, 00:08:51,    263,    0.4,    2.6,   0.00,   0.00, 1019.9,   89.2, -999.0
17-03-2022, 00:09:01,    263,    0.1,    2.6,   0.00,   0.00, 1019.9,   89.1, -999.0
17-03-2022, 00:09:11,    264,    0.1,    2.6,   0.00,   0.00, 1019.9,   89.1, -999.0
17-03-2022, 00:09:21,    246,    0.7,    2.5,   0.00,   0.00, 1019.9,   89.3, -999.0
17-03-2022, 00:09:31,    298,    1.6,    2.6,   0.00,   0.00, 1020.0,   89.3, -999.0
17-03-2022, 00:09:41,    307,    1.6,    2.6,   0.00,   0.00, 1019.9,   89.3, -999.0
17-03-2022, 00:09:51,    294,    1.6,    2.6,   0.00,   0.00, 1019.9,   89.2, -999.0
17-03-2022, 00:10:01,    239,    0.7,    2.5,   0.00,   0.00, 1019.9,   89.2, -999.0
17-03-2022, 00:10:11,    285,    0.1,    2.5,   0.00,   0.00, 1019.8,   88.8, -999.0
17-03-2022, 00:10:21,    282,    1.2,    2.6,   0.00,   0.00, 1019.9,   89.1, -999.0
17-03-2022, 00:10:31,    281,    1.0,    2.6,   0.00,   0.00, 1019.9,   89.1, -999.0
17-03-2022, 00:10:41,    276,    2.8,    2.6,   0.00,   0.00, 1019.9,   89.1, -999.0
17-03-2022, 00:10:51,    276,    1.6,    2.6,   0.00,   0.00, 1020.0,   89.1, -999.0
17-03-2022, 00:11:01,    281,    0.7,    2.6,   0.00,   0.00, 1019.9,   89.0, -999.0
17-03-2022, 00:11:11,    280,    0.4,    2.5,   0.00,   0.00, 1019.9,   89.0, -999.0
17-03-2022, 00:11:20,    275,    1.0,    2.6,   0.00,   0.00, 1019.9,   89.0, -999.0
17-03-2022, 00:11:30,    275,    0.0,    2.5,   0.00,   0.00, 1019.8,   88.7, -999.0
17-03-2022, 00:11:41,    278,    0.5,    2.5,   0.00,   0.00, 1019.9,   88.9, -999.0
17-03-2022, 00:11:50,    278,    0.0,    2.5,   0.00,   0.00, 1019.8,   88.8, -999.0
17-03-2022, 00:12:00,    289,    0.3,    2.5,   0.00,   0.00, 1019.9,   88.9, -999.0
17-03-2022, 00:12:10,    252,    1.5,    2.5,   0.00,   0.00, 1019.9,   88.9, -999.0
17-03-2022, 00:12:20,    287,    1.5,    2.6,   0.00,   0.00, 1019.9,   88.9, -999.0
17-03-2022, 00:12:30,    267,    0.9,    2.5,   0.00,   0.00, 1019.9,   88.8, -999.0
17-03-2022, 00:12:40,    266,    1.0,    2.5,   0.00,   0.00, 1020.0,   88.8, -999.0
17-03-2022, 00:12:50,    281,    1.1,    2.6,   0.00,   0.00, 1019.9,   88.8, -999.0
17-03-2022, 00:13:00,    252,    1.4,    2.6,   0.00,   0.00, 1020.0,   88.9, -999.0
17-03-2022, 00:13:10,    259,    2.1,    2.6,   0.00,   0.00, 1020.0,   88.8, -999.0
17-03-2022, 00:13:20,    260,    0.7,    2.5,   0.00,   0.00, 1020.0,   88.6, -999.0
17-03-2022, 00:13:30,    268,    0.8,    2.5,   0.00,   0.00, 1019.9,   88.7, -999.0
17-03-2022, 00:13:40,    254,    0.8,    2.5,   0.00,   0.00, 1019.9,   88.7, -999.0
17-03-2022, 00:13:50,    253,    2.7,    2.5,   0.00,   0.00, 1020.0,   88.7, -999.0
17-03-2022, 00:14:00,    250,    1.5,    2.6,   0.00,   0.00, 1019.9,   88.7, -999.0
17-03-2022, 00:14:10,    301,    2.2,    2.6,   0.00,   0.00, 1019.9,   88.6, -999.0
17-03-2022, 00:14:20,    310,    1.1,    2.6,   0.00,   0.00, 1020.0,   88.6, -999.0
17-03-2022, 00:14:30,    282,    1.1,    2.5,   0.00,   0.00, 1020.0,   88.7, -999.0
17-03-2022, 00:14:39,    287,    0.9,    2.5,   0.00,   0.00, 1020.0,   88.6, -999.0
17-03-2022, 00:14:50,    235,    3.4,    2.5,   0.00,   0.00, 1019.9,   88.5, -999.0
17-03-2022, 00:14:59,    272,    2.4,    2.5,   0.00,   0.00, 1020.0,   88.4, -999.0
17-03-2022, 00:15:09,    296,    1.0,    2.6,   0.00,   0.00, 1020.0,   88.5, -999.0
17-03-2022, 00:15:20,    288,    1.1,    2.6,   0.00,   0.00, 1020.0,   88.4, -999.0
17-03-2022, 00:15:29,    235,    1.7,    2.6,   0.00,   0.00, 1020.0,   88.5, -999.0
17-03-2022, 00:15:39,    302,    1.8,    2.6,   0.00,   0.00, 1020.0,   88.4, -999.0
17-03-2022, 00:15:49,    301,    2.3,    2.6,   0.00,   0.00, 1020.0,   88.4, -999.0
17-03-2022, 00:15:59,    243,    1.5,    2.6,   0.00,   0.00, 1020.0,   88.3, -999.0
17-03-2022, 00:16:09,    275,    3.0,    2.5,   0.00,   0.00, 1020.0,   88.3, -999.0
17-03-2022, 00:16:19,    280,    1.7,    2.6,   0.00,   0.00, 1020.0,   88.3, -999.0
17-03-2022, 00:16:29,    293,    2.0,    2.6,   0.00,   0.00, 1020.0,   88.2, -999.0
17-03-2022, 00:16:39,    286,    1.5,    2.6,   0.00,   0.00, 1020.0,   88.2, -999.0
17-03-2022, 00:16:49,    248,    0.8,    2.6,   0.00,   0.00, 1020.0,   88.2, -999.0
17-03-2022, 00:16:59,    254,    1.0,    2.6,   0.00,   0.00, 1020.0,   88.2, -999.0
17-03-2022, 00:17:09,    340,    0.7,    2.6,   0.00,   0.00, 1020.0,   88.1, -999.0
17-03-2022, 00:17:19,    267,    1.0,    2.6,   0.00,   0.00, 1020.0,   88.0, -999.0
17-03-2022, 00:17:29,    257,    2.9,    2.6,   0.00,   0.00, 1020.0,   88.1, -999.0
17-03-2022, 00:17:39,    299,    2.0,    2.5,   0.00,   0.00, 1020.0,   88.1, -999.0
17-03-2022, 00:17:49,    296,    1.1,    2.3,   0.00,   0.00, 1020.0,   87.9, -999.0
17-03-2022, 00:17:59,    296,    2.1,    2.5,   0.00,   0.00, 1020.0,   87.9, -999.0
17-03-2022, 00:18:08,    296,    1.3,    2.6,   0.00,   0.00, 1020.0,   87.9, -999.0
17-03-2022, 00:18:18,    294,    0.8,    2.6,   0.00,   0.00, 1020.0,   87.8, -999.0
17-03-2022, 00:18:29,    295,    0.6,    2.6,   0.00,   0.00, 1020.0,   87.7, -999.0
17-03-2022, 00:18:38,    297,    0.6,    2.6,   0.00,   0.00, 1019.9,   87.7, -999.0
17-03-2022, 00:18:48,    297,    0.7,    2.6,   0.00,   0.00, 1020.0,   87.8, -999.0
17-03-2022, 00:18:58,    296,    0.1,    2.6,   0.00,   0.00, 1019.9,   87.6, -999.0
17-03-2022, 00:19:08,    296,    0.0,    2.5,   0.00,   0.00, 1019.9,   87.4, -999.0
17-03-2022, 00:19:18,    306,    1.0,    2.5,   0.00,   0.00, 1020.0,   87.6, -999.0
17-03-2022, 00:19:28,    289,    1.5,    2.6,   0.00,   0.00, 1020.1,   87.7, -999.0
17-03-2022, 00:19:38,    284,    0.3,    2.4,   0.00,   0.00, 1020.1,   87.6, -999.0
17-03-2022, 00:19:48,    268,    1.4,    2.6,   0.00,   0.00, 1020.1,   87.7, -999.0
17-03-2022, 00:19:58,    262,    2.2,    2.6,   0.00,   0.00, 1020.1,   87.7, -999.0
17-03-2022, 00:20:08,    267,    3.2,    2.6,   0.00,   0.00, 1020.1,   87.6, -999.0
17-03-2022, 00:20:18,    287,    2.2,    2.5,   0.00,   0.00, 1020.1,   87.5, -999.0
17-03-2022, 00:20:28,    277,    2.3,    2.5,   0.00,   0.00, 1020.1,   87.6, -999.0
17-03-2022, 00:20:38,    267,    2.3,    2.4,   0.00,   0.00, 1020.1,   87.5, -999.0
17-03-2022, 00:20:48,    283,    1.8,    2.6,   0.00,   0.00, 1020.1,   87.5, -999.0
17-03-2022, 00:20:58,    296,    1.6,    2.5,   0.00,   0.00, 1020.1,   87.4, -999.0
17-03-2022, 00:21:08,    299,    1.1,    2.5,   0.00,   0.00, 1020.1,   87.5, -999.0
17-03-2022, 00:21:17,    292,    0.9,    2.6,   0.00,   0.00, 1020.1,   87.4, -999.0
17-03-2022, 00:21:28,    291,    0.2,    2.5,   0.00,   0.00, 1020.0,   87.2, -999.0
17-03-2022, 00:21:38,    283,    0.3,    2.5,   0.00,   0.00, 1020.0,   87.1, -999.0
17-03-2022, 00:21:47,    279,    0.3,    2.5,   0.00,   0.00, 1020.1,   87.1, -999.0
17-03-2022, 00:21:57,    307,    2.9,    2.6,   0.00,   0.00, 1020.1,   87.3, -999.0
17-03-2022, 00:22:08,    313,    1.8,    2.6,   0.00,   0.00, 1020.1,   87.3, -999.0
17-03-2022, 00:22:17,    309,    0.6,    2.6,   0.00,   0.00, 1020.1,   87.3, -999.0
17-03-2022, 00:22:27,    308,    0.0,    2.5,   0.00,   0.00, 1020.0,   86.8, -999.0
17-03-2022, 00:22:37,    277,    0.5,    2.5,   0.00,   0.00, 1020.1,   87.1, -999.0
17-03-2022, 00:22:47,    254,    1.7,    2.4,   0.00,   0.00, 1020.1,   87.2, -999.0
17-03-2022, 00:22:57,    241,    0.6,    2.5,   0.00,   0.00, 1020.1,   87.1, -999.0
17-03-2022, 00:23:07,    309,    1.8,    2.6,   0.00,   0.00, 1020.1,   87.0, -999.0
17-03-2022, 00:23:17,    288,    1.0,    2.6,   0.00,   0.00, 1020.1,   87.0, -999.0
17-03-2022, 00:23:27,    294,    1.3,    2.4,   0.00,   0.00, 1020.1,   86.9, -999.0
17-03-2022, 00:23:37,    313,    2.9,    2.5,   0.00,   0.00, 1020.1,   86.9, -999.0
17-03-2022, 00:23:47,    317,    1.8,    2.6,   0.00,   0.00, 1020.1,   86.8, -999.0
17-03-2022, 00:23:57,    300,    1.1,    2.6,   0.00,   0.00, 1020.1,   86.8, -999.0
17-03-2022, 00:24:07,    300,    0.1,    2.6,   0.00,   0.00, 1020.1,   86.6, -999.0
17-03-2022, 00:24:17,    304,    0.5,    2.6,   0.00,   0.00, 1020.2,   86.8, -999.0
17-03-2022, 00:24:26,    302,    2.8,    2.7,   0.00,   0.00, 1020.2,   86.8, -999.0
17-03-2022, 00:24:37,    283,    2.1,    2.6,   0.00,   0.00, 1020.1,   86.6, -999.0
17-03-2022, 00:24:47,    286,    1.0,    2.6,   0.00,   0.00, 1020.2,   86.6, -999.0
17-03-2022, 00:24:56,    281,    1.2,    2.6,   0.00,   0.00, 1020.1,   86.5, -999.0
17-03-2022, 00:25:06,    300,    1.2,    2.6,   0.00,   0.00, 1020.2,   86.7, -999.0
17-03-2022, 00:25:17,    300,    0.4,    2.6,   0.00,   0.00, 1020.1,   86.3, -999.0
17-03-2022, 00:25:26,    283,    0.6,    2.6,   0.00,   0.00, 1020.1,   86.5, -999.0
17-03-2022, 00:25:36,    266,    1.8,    2.6,   0.00,   0.00, 1020.2,   86.5, -999.0
17-03-2022, 00:25:47,    268,    2.3,    2.7,   0.00,   0.00, 1020.3,   86.4, -999.0
17-03-2022, 00:25:56,    336,    0.6,    2.6,   0.00,   0.00, 1020.2,   86.3, -999.0
17-03-2022, 00:26:06,    288,    1.4,    2.6,   0.00,   0.00, 1020.2,   86.2, -999.0
17-03-2022, 00:26:16,    288,    1.5,    2.6,   0.00,   0.00, 1020.3,   86.2, -999.0
17-03-2022, 00:26:26,    298,    1.5,    2.6,   0.00,   0.00, 1020.3,   86.3, -999.0
17-03-2022, 00:26:38,    249,    0.2,    2.6,   0.00,   0.00, 1020.2,   86.1, -999.0
17-03-2022, 00:26:46,    284,    0.4,    2.5,   0.00,   0.00, 1020.2,   86.1, -999.0
17-03-2022, 00:26:56,    297,    2.3,    2.5,   0.00,   0.00, 1020.3,   86.2, -999.0
17-03-2022, 00:27:06,    270,    1.5,    2.6,   0.00,   0.00, 1020.3,   86.2, -999.0
17-03-2022, 00:27:16,    271,    0.2,    2.5,   0.00,   0.00, 1020.2,   86.0, -999.0
17-03-2022, 00:27:26,    315,    0.8,    2.5,   0.00,   0.00, 1020.3,   86.1, -999.0
17-03-2022, 00:27:36,    314,    0.0,    2.5,   0.00,   0.00, 1020.2,   85.8, -999.0
17-03-2022, 00:27:46,    314,    0.4,    2.5,   0.00,   0.00, 1020.3,   85.9, -999.0
17-03-2022, 00:27:56,    314,    0.0,    2.5,   0.00,   0.00, 1020.2,   85.8, -999.0
17-03-2022, 00:28:05,    283,    0.2,    2.5,   0.00,   0.00, 1020.3,   85.9, -999.0
17-03-2022, 00:28:16,    283,    0.3,    2.6,   0.00,   0.00, 1020.3,   85.9, -999.0
17-03-2022, 00:28:26,    262,    2.3,    2.6,   0.00,   0.00, 1020.3,   85.9, -999.0
17-03-2022, 00:28:35,    245,    3.6,    2.4,   0.00,   0.00, 1020.3,   86.0, -999.0
17-03-2022, 00:28:45,    265,    4.4,    2.5,   0.00,   0.00, 1020.3,   85.9, -999.0
17-03-2022, 00:28:56,    286,    3.4,    2.5,   0.00,   0.00, 1020.3,   85.9, -999.0
17-03-2022, 00:29:05,    282,    1.7,    2.5,   0.00,   0.00, 1020.3,   85.8, -999.0
17-03-2022, 00:29:15,    261,    2.6,    2.5,   0.00,   0.00, 1020.3,   85.9, -999.0
17-03-2022, 00:29:25,    269,    1.6,    2.5,   0.00,   0.00, 1020.3,   85.9, -999.0
17-03-2022, 00:29:35,    260,    1.5,    2.6,   0.00,   0.00, 1020.3,   85.8, -999.0
17-03-2022, 00:29:45,    260,    1.0,    2.6,   0.00,   0.00, 1020.3,   85.9, -999.0
17-03-2022, 00:29:55,    257,    0.9,    2.5,   0.00,   0.00, 1020.3,   85.7, -999.0
17-03-2022, 00:30:05,    317,    0.7,    2.5,   0.00,   0.00, 1020.3,   85.7, -999.0
17-03-2022, 00:30:15,    324,    0.7,    2.5,   0.00,   0.00, 1020.3,   85.8, -999.0
17-03-2022, 00:30:25,    256,    0.5,    2.6,   0.00,   0.00, 1020.3,   85.9, -999.0
17-03-2022, 00:30:35,    256,    1.4,    2.5,   0.00,   0.00, 1020.4,   85.9, -999.0
17-03-2022, 00:30:45,    257,    0.5,    2.5,   0.00,   0.00, 1020.3,   85.8, -999.0
17-03-2022, 00:30:55,    256,    0.0,    2.4,   0.00,   0.00, 1020.2,   85.5, -999.0
17-03-2022, 00:31:05,    257,    0.1,    2.4,   0.00,   0.00, 1020.2,   85.5, -999.0
17-03-2022, 00:31:14,    297,    0.6,    2.5,   0.00,   0.00, 1020.3,   85.7, -999.0
17-03-2022, 00:31:25,    298,    1.3,    2.4,   0.00,   0.00, 1020.3,   85.8, -999.0
17-03-2022, 00:31:35,    268,    1.7,    2.5,   0.00,   0.00, 1020.3,   85.7, -999.0
17-03-2022, 00:31:44,    243,    2.6,    2.4,   0.00,   0.00, 1020.4,   85.7, -999.0
17-03-2022, 00:31:54,    250,    2.5,    2.5,   0.00,   0.00, 1020.3,   85.7, -999.0
17-03-2022, 00:32:05,    260,    2.6,    2.4,   0.00,   0.00, 1020.4,   85.7, -999.0
17-03-2022, 00:32:14,    279,    2.5,    2.5,   0.00,   0.00, 1020.3,   85.6, -999.0
17-03-2022, 00:32:24,    284,    1.7,    2.4,   0.00,   0.00, 1020.3,   85.7, -999.0
17-03-2022, 00:32:34,    284,    0.2,    2.4,   0.00,   0.00, 1020.3,   85.6, -999.0
17-03-2022, 00:32:44,    221,    1.1,    2.5,   0.00,   0.00, 1020.4,   85.7, -999.0
17-03-2022, 00:32:54,    253,    2.1,    2.4,   0.00,   0.00, 1020.3,   85.8, -999.0
17-03-2022, 00:33:04,    269,    2.3,    2.4,   0.00,   0.00, 1020.4,   85.7, -999.0
17-03-2022, 00:33:14,    283,    3.2,    2.5,   0.00,   0.00, 1020.4,   85.7, -999.0
17-03-2022, 00:33:24,    261,    1.7,    2.4,   0.00,   0.00, 1020.4,   85.7, -999.0
17-03-2022, 00:33:34,    262,    1.0,    2.4,   0.00,   0.00, 1020.4,   85.8, -999.0
17-03-2022, 00:33:44,    253,    1.7,    2.4,   0.00,   0.00, 1020.4,   85.7, -999.0
17-03-2022, 00:33:54,    243,    2.1,    2.4,   0.00,   0.00, 1020.4,   85.6, -999.0
17-03-2022, 00:34:04,    246,    1.2,    2.4,   0.00,   0.00, 1020.4,   85.6, -999.0
17-03-2022, 00:34:14,    253,    0.4,    2.4,   0.00,   0.00, 1020.3,   85.6, -999.0
17-03-2022, 00:34:24,    254,    1.0,    2.4,   0.00,   0.00, 1020.3,   85.7, -999.0
17-03-2022, 00:34:34,    267,    1.2,    2.4,   0.00,   0.00, 1020.3,   85.7, -999.0
17-03-2022, 00:34:44,    276,    1.2,    2.4,   0.00,   0.00, 1020.4,   85.7, -999.0
17-03-2022, 00:34:53,    284,    1.5,    2.4,   0.00,   0.00, 1020.4,   85.6, -999.0
17-03-2022, 00:35:04,    284,    0.5,    2.4,   0.00,   0.00, 1020.3,   85.6, -999.0
17-03-2022, 00:35:14,    280,    0.3,    2.4,   0.00,   0.00, 1020.3,   85.5, -999.0
17-03-2022, 00:35:23,    280,    0.0,    2.3,   0.00,   0.00, 1020.2,   85.3, -999.0
17-03-2022, 00:35:33,    281,    1.5,    2.4,   0.00,   0.00, 1020.4,   85.6, -999.0
17-03-2022, 00:35:43,    263,    2.0,    2.4,   0.00,   0.00, 1020.4,   85.6, -999.0
17-03-2022, 00:35:53,    270,    2.3,    2.4,   0.00,   0.00, 1020.4,   85.6, -999.0
17-03-2022, 00:36:03,    256,    1.6,    2.3,   0.00,   0.00, 1020.4,   85.6, -999.0
17-03-2022, 00:36:13,    286,    3.0,    2.3,   0.00,   0.00, 1020.4,   85.6, -999.0
17-03-2022, 00:36:23,    271,    1.2,    2.3,   0.00,   0.00, 1020.4,   85.6, -999.0
17-03-2022, 00:36:33,    273,    3.3,    2.4,   0.00,   0.00, 1020.4,   85.7, -999.0
17-03-2022, 00:36:43,    292,    2.3,    2.4,   0.00,   0.00, 1020.4,   85.7, -999.0
17-03-2022, 00:36:53,    269,    1.5,    2.3,   0.00,   0.00, 1020.4,   85.6, -999.0
17-03-2022, 00:37:03,    268,    0.6,    2.3,   0.00,   0.00, 1020.3,   85.6, -999.0
17-03-2022, 00:37:13,    270,    0.5,    2.3,   0.00,   0.00, 1020.3,   85.6, -999.0
17-03-2022, 00:37:23,    266,    1.9,    2.3,   0.00,   0.00, 1020.4,   85.7, -999.0
17-03-2022, 00:37:33,    268,    1.1,    2.2,   0.00,   0.00, 1020.4,   85.7, -999.0
17-03-2022, 00:37:43,    272,    0.6,    2.4,   0.00,   0.00, 1020.4,   85.7, -999.0
17-03-2022, 00:37:53,    284,    1.1,    2.4,   0.00,   0.00, 1020.4,   85.7, -999.0
17-03-2022, 00:38:02,    283,    1.2,    2.3,   0.00,   0.00, 1020.4,   85.7, -999.0
17-03-2022, 00:38:13,    284,    0.2,    2.3,   0.00,   0.00, 1020.4,   85.4, -999.0
17-03-2022, 00:38:23,    281,    0.7,    2.3,   0.00,   0.00, 1020.4,   85.6, -999.0
17-03-2022, 00:38:32,    268,    1.9,    2.3,   0.00,   0.00, 1020.4,   85.6, -999.0
17-03-2022, 00:38:43,    267,    2.3,    2.3,   0.00,   0.00, 1020.4,   85.6, -999.0
17-03-2022, 00:38:52,    263,    1.7,    2.3,   0.00,   0.00, 1020.4,   85.6, -999.0
17-03-2022, 00:39:02,    263,    0.5,    2.3,   0.00,   0.00, 1020.4,   85.5, -999.0
17-03-2022, 00:39:12,    263,    0.0,    2.2,   0.00,   0.00, 1020.3,   85.2, -999.0
17-03-2022, 00:39:22,    263,    0.0,    2.2,   0.00,   0.00, 1020.3,   85.2, -999.0
17-03-2022, 00:39:32,    261,    1.1,    2.2,   0.00,   0.00, 1020.4,   85.5, -999.0
17-03-2022, 00:39:42,    259,    3.0,    2.3,   0.00,   0.00, 1020.4,   85.6, -999.0
17-03-2022, 00:39:52,    263,    1.9,    2.3,   0.00,   0.00, 1020.4,   85.5, -999.0
17-03-2022, 00:40:02,    263,    1.2,    2.3,   0.00,   0.00, 1020.4,   85.6, -999.0
17-03-2022, 00:40:12,    301,    1.0,    2.3,   0.00,   0.00, 1020.4,   85.5, -999.0
17-03-2022, 00:40:22,    301,    0.8,    2.2,   0.00,   0.00, 1020.4,   85.6, -999.0
17-03-2022, 00:40:32,    299,    0.3,    2.2,   0.00,   0.00, 1020.4,   85.5, -999.0
17-03-2022, 00:40:42,    276,    0.4,    2.2,   0.00,   0.00, 1020.3,   85.4, -999.0
17-03-2022, 00:40:52,    274,    1.7,    2.2,   0.00,   0.00, 1020.4,   85.6, -999.0
17-03-2022, 00:41:02,    274,    0.4,    2.2,   0.00,   0.00, 1020.4,   85.6, -999.0
17-03-2022, 00:41:12,    273,    0.2,    2.1,   0.00,   0.00, 1020.3,   85.5, -999.0
17-03-2022, 00:41:22,    250,    0.8,    2.2,   0.00,   0.00, 1020.4,   85.6, -999.0
17-03-2022, 00:41:31,    250,    0.8,    2.2,   0.00,   0.00, 1020.4,   85.7, -999.0
17-03-2022, 00:41:41,    248,    0.2,    2.2,   0.00,   0.00, 1020.4,   85.5, -999.0
17-03-2022, 00:41:52,    245,    1.0,    2.3,   0.00,   0.00, 1020.5,   85.7, -999.0
17-03-2022, 00:42:01,    245,    0.3,    2.2,   0.00,   0.00, 1020.4,   85.5, -999.0
17-03-2022, 00:42:11,    246,    0.3,    2.1,   0.00,   0.00, 1020.4,   85.5, -999.0
17-03-2022, 00:42:21,    247,    0.1,    2.1,   0.00,   0.00, 1020.4,   85.5, -999.0
17-03-2022, 00:42:31,    247,    0.0,    2.1,   0.00,   0.00, 1020.3,   85.4, -999.0
17-03-2022, 00:42:41,    248,    0.0,    2.1,   0.00,   0.00, 1020.4,   85.4, -999.0
17-03-2022, 00:42:51,    248,    0.0,    2.1,   0.00,   0.00, 1020.4,   85.5, -999.0
17-03-2022, 00:43:01,    265,    0.2,    2.1,   0.00,   0.00, 1020.4,   85.7, -999.0
17-03-2022, 00:43:11,    294,    0.7,    2.2,   0.00,   0.00, 1020.5,   85.9, -999.0
17-03-2022, 00:43:21,    294,    0.1,    2.1,   0.00,   0.00, 1020.4,   85.7, -999.0
17-03-2022, 00:43:31,    294,    0.0,    2.1,   0.00,   0.00, 1020.3,   85.6, -999.0
17-03-2022, 00:43:41,    294,    0.0,    2.0,   0.00,   0.00, 1020.4,   85.6, -999.0
17-03-2022, 00:43:51,    292,    0.0,    2.1,   0.00,   0.00, 1020.4,   85.7, -999.0
17-03-2022, 00:44:01,    291,    0.1,    2.1,   0.00,   0.00, 1020.4,   85.8, -999.0
17-03-2022, 00:44:11,    277,    0.1,    2.1,   0.00,   0.00, 1020.4,   85.6, -999.0
17-03-2022, 00:44:21,    277,    0.1,    2.1,   0.00,   0.00, 1020.4,   85.7, -999.0
17-03-2022, 00:44:31,    275,    0.1,    2.0,   0.00,   0.00, 1020.4,   85.7, -999.0
17-03-2022, 00:44:41,    262,    1.3,    2.1,   0.00,   0.00, 1020.5,   86.1, -999.0
17-03-2022, 00:44:50,    272,    1.7,    2.1,   0.00,   0.00, 1020.5,   86.0, -999.0
17-03-2022, 00:45:01,    257,    1.0,    2.1,   0.00,   0.00, 1020.5,   86.0, -999.0
17-03-2022, 00:45:10,    257,    0.2,    2.1,   0.00,   0.00, 1020.4,   85.8, -999.0
17-03-2022, 00:45:20,    257,    0.2,    2.0,   0.00,   0.00, 1020.5,   85.9, -999.0
17-03-2022, 00:45:31,    257,    0.4,    2.0,   0.00,   0.00, 1020.5,   86.0, -999.0
17-03-2022, 00:45:40,    257,    0.6,    2.1,   0.00,   0.00, 1020.5,   86.0, -999.0
17-03-2022, 00:45:50,    257,    0.3,    2.1,   0.00,   0.00, 1020.5,   86.0, -999.0
17-03-2022, 00:46:00,    258,    0.4,    2.1,   0.00,   0.00, 1020.5,   85.9, -999.0
17-03-2022, 00:46:10,    260,    1.0,    2.1,   0.00,   0.00, 1020.5,   86.1, -999.0
17-03-2022, 00:46:20,    260,    0.2,    2.0,   0.00,   0.00, 1020.4,   85.9, -999.0
17-03-2022, 00:46:30,    260,    0.0,    2.0,   0.00,   0.00, 1020.4,   85.8, -999.0
17-03-2022, 00:46:40,    260,    0.0,    1.9,   0.00,   0.00, 1020.4,   85.7, -999.0